McGrath, AK

7:21 AM AKST on December 07, 2016 (GMT -0900)
McGrath

Weather History for PAMC - October, 2012

Change the Weather History Date:

Tuesday, October 16, 2012

  Actual Average Record
Temperature  
Mean Temperature 22 °F 25 °F  
Max Temperature 27 °F 32 °F 52 °F (1972)
Min Temperature 16 °F 19 °F -13 °F (1965)
Degree Days  
Heating Degree Days 43 40  
Month to date heating degree days 476 549  
Since 1 July heating degree days 1697 1652  
Cooling Degree Days 0 0  
Month to date cooling degree days 0 0  
Year to date cooling degree days 4 20  
Moisture  
Dew Point 13 °F    
Average Humidity 0    
Maximum Humidity 0    
Minimum Humidity 0    
Precipitation  
Precipitation T in 0.04 in 0.92 in (1982)
Month to date precipitation 1.79 0.86  
Year to date precipitation 20.49 14.72  
Snow  
Snow T in 0.30 in 7.00 in (1961)
Month to date snowfall 0.4 3.9  
Since 1 July snowfall 2.0 5.4  
Since 1 September snowfall 2.0 5.4  
Snow Depth T in    
Sea Level Pressure  
Sea Level Pressure 29.59 in    
Wind  
Wind Speed 5 mph (NNW)    
Max Wind Speed 14 mph    
Max Gust Speed 20 mph    
Visibility 10 miles    
Events Snow    
T = Trace of Precipitation, MM = Missing Value Source: NWS Daily Summary

Daily Weather History Graph

Daily Weather History Graph

Search for Another Location

Airport or City:

Trip Planner

Search our weather history database for the weather conditions in past years. The results will help you decide how hot, cold, wet, or windy it might be!

Date:

Astronomy

Oct. 16, 2012 Rise Set
Actual Time 9:14 AM AKDT 7:00 PM AKDT
Civil Twilight 8:27 AM AKDT 7:46 PM AKDT
Nautical Twilight 7:34 AM AKDT 8:39 PM AKDT
Astronomical Twilight 6:40 AM AKDT 9:33 PM AKDT
Moon 11:41 AM AKDT (10/16) 6:58 PM AKDT (10/16)
Length of Visible Light 11h 19m
Length of Day
9h 46m
Waxing Crescent, 3% of the Moon is Illuminated
Oct 16
Waxing Crescent
Oct 21
First Quarter
Oct 29
Full
Nov 6
Last Quarter
Nov 13
New

Hourly Weather History & Observations

Time (AKDT) Temp. Windchill Dew Point Humidity Pressure Visibility Wind Dir Wind Speed Gust Speed Precip Events Conditions
12:53 AM 21.9 °F 10.4 °F 12.9 °F 68% 29.45 in 9.0 mi NNW 11.5 mph 17.3 mph 0.00 in   Overcast
1:53 AM 21.9 °F 11.7 °F 12.9 °F 68% 29.46 in 10.0 mi NNW 9.2 mph - 0.00 in Snow Light Snow
2:53 AM 21.9 °F 14.5 °F 12.0 °F 66% 29.46 in 9.0 mi NNW 5.8 mph - 0.00 in Snow Light Snow
3:53 AM 21.0 °F 14.6 °F 12.0 °F 68% 29.47 in 9.0 mi NNW 4.6 mph - 0.00 in Snow Light Snow
4:53 AM 19.9 °F - 12.9 °F 74% 29.49 in 10.0 mi Calm Calm - 0.00 in   Overcast
5:53 AM 19.9 °F - 12.0 °F 71% 29.50 in 10.0 mi Calm Calm - N/A   Overcast
6:53 AM 19.9 °F - 10.9 °F 68% 29.51 in 10.0 mi Calm Calm - 0.00 in Snow Light Snow
7:53 AM 19.0 °F 12.3 °F 10.9 °F 71% 29.52 in 9.0 mi West 4.6 mph - 0.00 in Snow Light Snow
8:53 AM 17.1 °F 11.7 °F 9.0 °F 71% 29.53 in 10.0 mi West 3.5 mph - 0.00 in   Scattered Clouds
9:53 AM 16.0 °F - 9.0 °F 74% 29.55 in 10.0 mi Calm Calm - N/A   Scattered Clouds
10:53 AM 18.0 °F 12.7 °F 9.0 °F 68% 29.57 in 10.0 mi West 3.5 mph - N/A   Scattered Clouds
11:53 AM 23.0 °F 14.7 °F 10.0 °F 58% 29.58 in 10.0 mi WNW 6.9 mph - N/A   Scattered Clouds
12:53 PM 24.1 °F 13.7 °F 10.9 °F 57% 29.60 in 10.0 mi North 10.4 mph - N/A   Scattered Clouds
1:53 PM 26.1 °F 18.4 °F 12.0 °F 55% 29.61 in 10.0 mi North 6.9 mph - N/A   Scattered Clouds
2:53 PM 26.1 °F 16.2 °F 12.9 °F 58% 29.62 in 10.0 mi North 10.4 mph - N/A   Scattered Clouds
3:53 PM 26.1 °F 16.8 °F 12.9 °F 58% 29.64 in 10.0 mi North 9.2 mph 19.6 mph N/A   Scattered Clouds
4:53 PM 25.0 °F 16.3 °F 14.0 °F 63% 29.66 in 10.0 mi North 8.1 mph - N/A   Mostly Cloudy
5:44 PM 24.8 °F 13.4 °F 14.0 °F 64% 29.65 in 10.0 mi North 12.7 mph - N/A   Overcast
5:53 PM 24.1 °F 13.1 °F 14.0 °F 65% 29.68 in 10.0 mi North 11.5 mph - N/A   Overcast
6:53 PM 24.1 °F 17.0 °F 15.1 °F 69% 29.70 in 10.0 mi Variable 5.8 mph - N/A   Overcast
8:53 PM 24.1 °F 18.2 °F 16.0 °F 71% 29.73 in 10.0 mi North 4.6 mph - N/A   Overcast
9:53 PM 25.0 °F 20.7 °F 16.0 °F 69% 29.75 in 10.0 mi NNE 3.5 mph - N/A   Overcast
11:53 PM 24.1 °F 18.2 °F 17.1 °F 75% 29.77 in 10.0 mi NNW 4.6 mph - 0.00 in   Overcast